• In Deutschland
  • Länderverzeichnis
  • Für 7 Tage
  • Wassertemperatur
  • Satellitenkarten
  • Wetterkarte
  • Widgets
  • user-avatar
    Anmelden

    Stündliche Wetter Radevormwald

    Heute, 20 Juli, Freitag

    Zeit Temperatur Niederschläge Wind Luftdruck Luftfeuchtigkeit
    00:00 +19°C° 0 mm 1 m/S 731 mmHg 66%
    01:00 +18°C° 0 mm 1 m/S 731 mmHg 67%
    02:00 +18°C° 0 mm 1 m/S 731 mmHg 68%
    03:00 +16°C° 0 mm 1 m/S 731 mmHg 69%
    04:00 +18°C° 0 mm 1 m/S 731 mmHg 66%
    05:00 +19°C° 0 mm 1 m/S 731 mmHg 64%
    06:00 +20°C° 0 mm 1 m/S 731 mmHg 62%
    07:00 +22°C° 0 mm 1 m/S 731 mmHg 56%
    08:00 +24°C° 0 mm 1 m/S 731 mmHg 49%
    09:00 +26°C° 0 mm 1 m/S 731 mmHg 43%
    10:00 +27°C° 0 mm 1 m/S 730 mmHg 41%
    11:00 +28°C° 0 mm 1 m/S 730 mmHg 38%
    12:00 +29°C° 0 mm 1 m/S 730 mmHg 36%
    13:00 +29°C° 0 mm 1 m/S 730 mmHg 36%
    14:00 +29°C° 0 mm 1 m/S 729 mmHg 36%
    15:00 +29°C° 0 mm 1 m/S 729 mmHg 36%
    16:00 +28°C° 0 mm 1 m/S 729 mmHg 40%
    17:00 +27°C° 0 mm 1 m/S 729 mmHg 43%
    18:00 +27°C° 0 mm 1 m/S 728 mmHg 47%
    19:00 +25°C° 0 mm 1 m/S 728 mmHg 50%
    20:00 +24°C° 0 mm 1 m/S 728 mmHg 53%
    21:00 +22°C° 0 mm 1 m/S 728 mmHg 56%
    22:00 +21°C° 0,1 mm 1 m/S 728 mmHg 58%
    23:00 +20°C° 0,1 mm 2 m/S 728 mmHg 60%

    Morgen, 21 Juli, Samstag

    Zeit Temperatur Niederschläge Wind Luftdruck Luftfeuchtigkeit
    00:00 +19°C° 0,1 mm 2 m/S 728 mmHg 62%
    01:00 +20°C° 0,2 mm 1 m/S 727 mmHg 64%
    02:00 +19°C° 0,2 mm 1 m/S 727 mmHg 66%
    03:00 +19°C° 0,2 mm 1 m/S 727 mmHg 67%
    04:00 +20°C° 0,1 mm 1 m/S 727 mmHg 67%
    05:00 +21°C° 0,1 mm 1 m/S 727 mmHg 66%
    06:00 +19°C° 0,1 mm 0 m/S 727 mmHg 65%
    07:00 +21°C° 0 mm 0 m/S 728 mmHg 59%
    08:00 +23°C° 0 mm 0 m/S 728 mmHg 52%
    09:00 +28°C° 0 mm 1 m/S 728 mmHg 46%
    10:00 +29°C° 0 mm 1 m/S 728 mmHg 43%
    11:00 +30°C° 0 mm 1 m/S 728 mmHg 40%
    12:00 +31°C° 0 mm 1 m/S 728 mmHg 36%
    13:00 +30°C° 0 mm 1 m/S 728 mmHg 39%
    14:00 +29°C° 0 mm 1 m/S 728 mmHg 41%
    15:00 +29°C° 0 mm 1 m/S 728 mmHg 44%
    16:00 +28°C° 0 mm 1 m/S 728 mmHg 47%
    17:00 +27°C° 0 mm 1 m/S 728 mmHg 49%
    18:00 +27°C° 0 mm 1 m/S 728 mmHg 52%
    19:00 +26°C° 0,1 mm 1 m/S 728 mmHg 56%
    20:00 +24°C° 0,1 mm 1 m/S 728 mmHg 60%
    21:00 +23°C° 0,1 mm 2 m/S 728 mmHg 64%
    22:00 +22°C° 0,5 mm 1 m/S 728 mmHg 69%
    23:00 +21°C° 0,5 mm 1 m/S 728 mmHg 74%

    übermorgen, 22 Juli, Sonntag

    Zeit Temperatur Niederschläge Wind Luftdruck Luftfeuchtigkeit
    00:00 +20°C° 0,5 mm 1 m/S 728 mmHg 79%
    01:00 +20°C° 0,3 mm 1 m/S 728 mmHg 80%
    02:00 +19°C° 0,3 mm 1 m/S 728 mmHg 82%
    03:00 +19°C° 0,3 mm 1 m/S 728 mmHg 84%
    04:00 +19°C° 0 mm 1 m/S 728 mmHg 83%
    05:00 +20°C° 0 mm 1 m/S 728 mmHg 82%
    06:00 +20°C° 0 mm 1 m/S 729 mmHg 82%
    07:00 +21°C° 0,1 mm 2 m/S 729 mmHg 76%
    08:00 +23°C° 0,1 mm 2 m/S 729 mmHg 70%
    09:00 +24°C° 0,1 mm 2 m/S 729 mmHg 64%
    10:00 +26°C° 0,3 mm 2 m/S 729 mmHg 60%
    11:00 +27°C° 0,3 mm 2 m/S 729 mmHg 55%
    12:00 +28°C° 0,3 mm 2 m/S 729 mmHg 51%
    13:00 +28°C° 0,3 mm 2 m/S 729 mmHg 52%
    14:00 +27°C° 0,3 mm 2 m/S 729 mmHg 54%
    15:00 +27°C° 0,3 mm 3 m/S 729 mmHg 56%
    16:00 +26°C° 0,4 mm 3 m/S 729 mmHg 59%
    17:00 +26°C° 0,4 mm 2 m/S 729 mmHg 63%
    18:00 +25°C° 0,4 mm 2 m/S 729 mmHg 66%
    19:00 +23°C° 0 mm 2 m/S 730 mmHg 69%
    20:00 +21°C° 0 mm 2 m/S 730 mmHg 71%
    21:00 +20°C° 0 mm 2 m/S 730 mmHg 74%
    22:00 +19°C° 0 mm 2 m/S 731 mmHg 76%
    23:00 +18°C° 0 mm 2 m/S 731 mmHg 77%

    23 Juli, Montag

    Zeit Temperatur Niederschläge Wind Luftdruck Luftfeuchtigkeit
    00:00 +17°C° 0 mm 2 m/S 731 mmHg 78%
    01:00 +18°C° 0 mm 1 m/S 731 mmHg 79%
    02:00 +16°C° 0 mm 1 m/S 731 mmHg 80%
    03:00 +16°C° 0 mm 1 m/S 731 mmHg 81%
    04:00 +16°C° 0 mm 1 m/S 731 mmHg 79%
    05:00 +18°C° 0 mm 1 m/S 731 mmHg 77%
    06:00 +19°C° 0 mm 1 m/S 731 mmHg 75%
    07:00 +21°C° 0 mm 1 m/S 731 mmHg 66%
    08:00 +23°C° 0 mm 1 m/S 732 mmHg 58%
    09:00 +24°C° 0 mm 1 m/S 732 mmHg 49%
    10:00 +25°C° 0 mm 1 m/S 732 mmHg 46%
    11:00 +26°C° 0 mm 2 m/S 731 mmHg 43%
    12:00 +27°C° 0 mm 2 m/S 731 mmHg 39%
    13:00 +28°C° 0 mm 2 m/S 731 mmHg 39%
    14:00 +28°C° 0 mm 2 m/S 731 mmHg 39%
    15:00 +28°C° 0 mm 2 m/S 731 mmHg 39%
    16:00 +27°C° 0 mm 2 m/S 731 mmHg 44%
    17:00 +26°C° 0 mm 2 m/S 731 mmHg 49%
    18:00 +25°C° 0 mm 2 m/S 731 mmHg 54%
    19:00 +24°C° 0 mm 1 m/S 731 mmHg 59%
    20:00 +23°C° 0 mm 1 m/S 731 mmHg 64%
    21:00 +21°C° 0 mm 1 m/S 731 mmHg 68%
    22:00 +21°C° 0 mm 1 m/S 731 mmHg 70%
    23:00 +20°C° 0 mm 1 m/S 731 mmHg 72%

    24 Juli, Dienstag

    Zeit Temperatur Niederschläge Wind Luftdruck Luftfeuchtigkeit
    00:00 +20°C° 0 mm 1 m/S 730 mmHg 74%
    01:00 +19°C° 0 mm 1 m/S 730 mmHg 75%
    02:00 +19°C° 0 mm 1 m/S 730 mmHg 76%
    03:00 +18°C° 0 mm 1 m/S 730 mmHg 77%
    04:00 +19°C° 0 mm 1 m/S 730 mmHg 74%
    05:00 +20°C° 0 mm 1 m/S 730 mmHg 70%
    06:00 +21°C° 0 mm 1 m/S 730 mmHg 67%
    07:00 +23°C° 0 mm 1 m/S 730 mmHg 60%
    08:00 +25°C° 0 mm 1 m/S 730 mmHg 54%
    09:00 +27°C° 0 mm 1 m/S 730 mmHg 47%
    10:00 +28°C° 0 mm 1 m/S 730 mmHg 44%
    11:00 +29°C° 0 mm 1 m/S 729 mmHg 42%
    12:00 +28°C° 0 mm 0 m/S 729 mmHg 39%
    13:00 +28°C° 0 mm 0 m/S 729 mmHg 39%
    14:00 +28°C° 0 mm 0 m/S 729 mmHg 39%
    15:00 +28°C° 0 mm 0 m/S 729 mmHg 39%
    16:00 +27°C° 0 mm 0 m/S 728 mmHg 43%
    17:00 +26°C° 0 mm 0 m/S 728 mmHg 47%
    18:00 +27°C° 0 mm 1 m/S 728 mmHg 51%
    19:00 +25°C° 0 mm 1 m/S 728 mmHg 55%
    20:00 +24°C° 0 mm 1 m/S 729 mmHg 58%
    21:00 +23°C° 0 mm 1 m/S 729 mmHg 62%
    22:00 +22°C° 0 mm 1 m/S 729 mmHg 64%
    23:00 +22°C° 0 mm 1 m/S 729 mmHg 65%

    25 Juli, Mittwoch

    Zeit Temperatur Niederschläge Wind Luftdruck Luftfeuchtigkeit
    00:00 +21°C° 0 mm 1 m/S 729 mmHg 67%
    01:00 +21°C° 0 mm 1 m/S 729 mmHg 68%
    02:00 +21°C° 0 mm 1 m/S 729 mmHg 69%
    03:00 +20°C° 0 mm 1 m/S 729 mmHg 70%
    04:00 +21°C° 0 mm 1 m/S 729 mmHg 68%
    05:00 +22°C° 0 mm 1 m/S 729 mmHg 66%
    06:00 +23°C° 0 mm 1 m/S 729 mmHg 64%
    07:00 +24°C° 0 mm 1 m/S 729 mmHg 58%
    08:00 +26°C° 0 mm 1 m/S 729 mmHg 53%
    09:00 +27°C° 0 mm 1 m/S 730 mmHg 48%
    10:00 +28°C° 0,1 mm 1 m/S 730 mmHg 45%
    11:00 +29°C° 0,1 mm 1 m/S 730 mmHg 43%
    12:00 +30°C° 0,1 mm 1 m/S 730 mmHg 40%
    13:00 +30°C° 0,1 mm 1 m/S 730 mmHg 42%
    14:00 +29°C° 0,1 mm 1 m/S 730 mmHg 44%
    15:00 +29°C° 0,1 mm 1 m/S 730 mmHg 45%
    16:00 +28°C° 0,1 mm 1 m/S 730 mmHg 49%
    17:00 +27°C° 0,1 mm 1 m/S 730 mmHg 53%
    18:00 +26°C° 0,1 mm 2 m/S 730 mmHg 56%
    19:00 +25°C° 0,2 mm 2 m/S 730 mmHg 61%
    20:00 +24°C° 0,2 mm 2 m/S 730 mmHg 66%
    21:00 +21°C° 0,2 mm 2 m/S 731 mmHg 70%
    22:00 +21°C° 0 mm 2 m/S 731 mmHg 74%
    23:00 +20°C° 0 mm 2 m/S 731 mmHg 77%
    Mehr zeigen